Ridgeway Revenge
16 Jun 2018

     
Click your name for detailed results

Page 1 of 3 (147 items)
PosBib NoNameGun TimeChip TimeCategoryCat PosGenderGen PosTeamPace
175Max Harrison-Tosatto1:26:15.61:26:15.6SEN1Male19.1 m/hr
2168Owen Weller1:33:06.91:33:05.9SEN2Male28.4 m/hr
342Andrew Denham1:33:58.41:33:56.7V401Male3Four Wise Monkeys8.4 m/hr
4170Matt Wheatley1:34:38.41:34:36.7V402Male48.3 m/hr
5157Adrian Thrush1:38:00.31:37:59.5V501Male58.0 m/hr
678Ollie Hazel1:38:52.21:38:49.2SEN3Male67.9 m/hr
7175Richard Wilks1:41:26.91:41:25.7V403Male77.7 m/hr
8129Andrew Rennie1:41:30.21:41:24.7V404Male87.7 m/hr
9159Julian Tulk1:41:45.91:41:42.2SEN4Male97.7 m/hr
10141Stuart Shore1:42:50.51:42:49.1SEN5Male10AMCPS & Ringers7.6 m/hr
1173Timothy Haines1:43:21.51:43:18.3SEN6Male117.6 m/hr
1231Iain Church1:44:41.41:44:39.7V405Male12Four Wise Monkeys7.5 m/hr
1336Patrick Cooper1:44:45.81:44:44.3SEN7Male137.5 m/hr
1492Pieter Kriel1:44:55.01:44:54.2V406Male147.5 m/hr
1586Jimmy James1:45:18.91:45:12.5V407Male157.5 m/hr
16171Marc Whyborn1:45:19.81:45:10.8V408Male167.5 m/hr
17165Toby Warren1:45:38.81:45:38.6SEN8Male177.4 m/hr
1860Phil Freeman1:45:56.01:45:47.1SEN9Male18AMCPS & Ringers7.4 m/hr
19108William Miller1:46:03.51:45:56.0SEN10Male197.4 m/hr
205David Bannister1:46:25.31:46:24.1V502Male207.4 m/hr
2138Brian Critchley1:46:58.01:46:51.3V503Male217.3 m/hr
22153Andrew Taylor1:47:24.51:47:22.1V409Male227.3 m/hr
231Rachel Allen1:47:37.01:47:29.3V401Female17.3 m/hr
24163Alan Walker1:47:43.71:47:40.5V4010Male237.3 m/hr
2574Gabriel Hannon1:48:03.71:48:01.2UKN1Male247.3 m/hr
26145Neil Smith1:48:40.71:48:38.5V4011Male257.2 m/hr
2799Henrietta Mackinnon1:50:56.01:50:50.0V402Female27.1 m/hr
2868Jake Golland1:51:12.41:51:07.7SEN11Male267.1 m/hr
2919Douglas Braidwood1:51:17.61:51:16.5V4012Male277.1 m/hr
3071Kathy Griffin1:52:03.41:51:58.5SEN1Female37.0 m/hr
3132William Clark-Lowes1:52:30.11:52:16.6SEN12Male28Dirty Badgers7.0 m/hr
3223Anna Buckingham1:53:39.41:53:38.6SEN2Female46.9 m/hr
33125Marc Pujol1:53:57.61:53:45.7SEN13Male296.9 m/hr
34181Jamie Miller1:54:14.41:54:03.7V4013Male306.9 m/hr
3512Herve Bessieres1:54:35.81:54:33.3V4014Male316.9 m/hr
3625Alan Butler1:55:02.91:54:58.5V4015Male326.8 m/hr
37137Paul Sanderson1:55:09.31:54:54.8V601Male336.8 m/hr
38147Andy Sorensen1:55:27.31:55:27.1SEN14Male346.8 m/hr
3946James Disley1:55:52.61:55:44.9SEN15Male356.8 m/hr
4039Lucacs Daly1:56:20.81:56:11.6SEN16Male366.8 m/hr
41139Stephen Shakespeare1:56:37.31:56:34.6V4016Male376.7 m/hr
42126Paul Ray1:56:42.11:56:35.3SEN17Male38Faringdon and on6.7 m/hr
43161Sue Van Huyssteen1:56:54.01:56:46.1UKN1Female56.7 m/hr
4411Andy Bennett1:56:58.61:56:48.2SEN18Male39AMCPS & Ringers6.7 m/hr
4550Bill Egginton1:57:30.21:57:25.0V602Male406.7 m/hr
46131Polly Reuter1:57:35.31:57:22.1V403Female66.7 m/hr
4770Brian Griffin1:57:39.51:57:32.8V603Male416.7 m/hr
48169Charles Whalley1:57:44.71:57:34.3SEN19Male426.7 m/hr
4962Ben Fry1:58:03.01:57:56.1SEN20Male436.7 m/hr
50114Karl Overton1:58:03.11:57:56.4V4017Male446.7 m/hr
Page 1 of 3 (147 items)
   

fb